Weather History for Summerville, SC

Change the Weather History Date:

Friday, December 6, 2013

  Actual Average (KCHS) Record (KCHS)
Temperature  
Mean Temperature 72 °F 53 °F  
Max Temperature 80 °F 64 °F 82 °F (2013)
Min Temperature 64 °F 42 °F 27 °F (2000)
Degree Days  
Heating Degree Days 0 12  
Month to date heating degree days 70  
Since 1 July heating degree days 362  
Cooling Degree Days 7 0  
Month to date cooling degree days 0  
Year to date cooling degree days 2297  
Growing Degree Days 22 (Base 50)    
Moisture  
Dew Point 66 °F    
Average Humidity 81    
Maximum Humidity 100    
Minimum Humidity 58    
Precipitation  
Precipitation 0.00 in 0.10 in 1.86 in (1972)
Month to date precipitation 0.56  
Year to date precipitation 48.48  
Sea Level Pressure  
Sea Level Pressure 30.11 in    
Wind  
Wind Speed 7 mph (South)    
Max Wind Speed 14 mph    
Max Gust Speed 20 mph    
Visibility 10 miles    
Events      
T = Trace of Precipitation, MM = Missing Value Source: NWS Daily Summary

Daily Weather History Graph

Daily Weather History Graph

Search for Another Location

Airport:

Trip Planner

Search our weather history database for the weather conditions in past years. The results will help you decide how hot, cold, wet, or windy it might be!

Date:

Astronomy

Dec. 06, 2013 Rise Set
Actual Time 7:10 AM EST 5:14 PM EST
Civil Twilight 6:43 AM EST 5:41 PM EST
Nautical Twilight 6:12 AM EST 6:11 PM EST
Astronomical Twilight 5:42 AM EST 6:41 PM EST
Moon 10:21 AM EST (12/6) 9:35 PM EST (12/6)
Length of Visible Light 10h 57m
Length of Day
10h 03m
Waxing Crescent, 19% of the Moon is Illuminated
Dec 6
Waxing Crescent
Dec 9
First Quarter
Dec 17
Full
Dec 25
Last Quarter
Jan 1
New

Hourly Weather History & Observations

Time (EST) Temp. Heat Index Dew Point Humidity Pressure Visibility Wind Dir Wind Speed Gust Speed Precip Events Conditions
12:55 AM 68.0 °F - 64.4 °F 88% 30.11 in 10.0 mi South 4.6 mph - N/A   Clear
2:55 AM 66.2 °F - 64.4 °F 94% 30.11 in 10.0 mi South 6.9 mph - N/A   Clear
6:35 AM 64.4 °F - 64.4 °F 100% 30.12 in 10.0 mi South 3.5 mph - N/A   Clear
6:55 AM 64.4 °F - 64.4 °F 100% 30.12 in 10.0 mi South 4.6 mph - N/A   Clear
7:15 AM 64.4 °F - 64.4 °F 100% 30.12 in 10.0 mi South 3.5 mph - N/A   Clear
7:35 AM 66.2 °F - 64.4 °F 94% 30.13 in 10.0 mi South 4.6 mph - N/A   Clear
7:55 AM 66.2 °F - 64.4 °F 94% 30.13 in 10.0 mi South 3.5 mph - N/A   Clear
8:15 AM 68.0 °F - 66.2 °F 94% 30.14 in 10.0 mi South 4.6 mph - N/A   Clear
8:35 AM 68.0 °F - 66.2 °F 94% 30.15 in 10.0 mi South 3.5 mph - N/A   Clear
8:55 AM 69.8 °F - 66.2 °F 88% 30.15 in 10.0 mi South 3.5 mph - N/A   Clear
9:15 AM 71.6 °F - 66.2 °F 83% 30.15 in 10.0 mi South 6.9 mph - N/A   Clear
9:35 AM 71.6 °F - 66.2 °F 83% 30.15 in 10.0 mi South 9.2 mph - N/A   Clear
9:55 AM 73.4 °F - 66.2 °F 78% 30.15 in 10.0 mi South 8.1 mph - N/A   Clear
10:15 AM 75.2 °F - 66.2 °F 73% 30.16 in 10.0 mi SSW 6.9 mph - N/A   Clear
10:35 AM 77.0 °F - 68.0 °F 74% 30.16 in 10.0 mi SSW 4.6 mph - N/A   Clear
10:55 AM 78.8 °F - 68.0 °F 69% 30.16 in 10.0 mi South 10.4 mph - N/A   Scattered Clouds
11:15 AM 78.8 °F - 68.0 °F 69% 30.15 in 10.0 mi South 8.1 mph - N/A   Scattered Clouds
11:35 AM 78.8 °F - 68.0 °F 69% 30.15 in 10.0 mi SW 8.1 mph - N/A   Scattered Clouds
11:55 AM 80.6 °F 83.2 °F 68.0 °F 65% 30.14 in 10.0 mi SSW 5.8 mph - N/A   Mostly Cloudy
12:15 PM 80.6 °F 82.7 °F 66.2 °F 61% 30.13 in 10.0 mi South 11.5 mph - N/A   Mostly Cloudy
12:35 PM 80.6 °F 82.3 °F 64.4 °F 58% 30.12 in 10.0 mi South 11.5 mph 19.6 mph N/A   Scattered Clouds
12:55 PM 80.6 °F 82.3 °F 64.4 °F 58% 30.12 in 10.0 mi South 10.4 mph 18.4 mph N/A   Clear
1:15 PM 80.6 °F 82.3 °F 64.4 °F 58% 30.10 in 10.0 mi South 12.7 mph 18.4 mph N/A   Clear
1:35 PM 80.6 °F 82.7 °F 66.2 °F 61% 30.09 in 10.0 mi South 10.4 mph 18.4 mph N/A   Scattered Clouds
1:55 PM 80.6 °F 82.7 °F 66.2 °F 61% 30.08 in 10.0 mi South 13.8 mph 18.4 mph N/A   Scattered Clouds
2:15 PM 80.6 °F 82.7 °F 66.2 °F 61% 30.08 in 10.0 mi South 10.4 mph 17.3 mph N/A   Scattered Clouds
2:35 PM 80.6 °F 82.7 °F 66.2 °F 61% 30.08 in 10.0 mi South 8.1 mph - N/A   Scattered Clouds
2:55 PM 80.6 °F 82.7 °F 66.2 °F 61% 30.07 in 10.0 mi South 13.8 mph 19.6 mph N/A   Clear
3:15 PM 78.8 °F - 66.2 °F 65% 30.07 in 10.0 mi South 8.1 mph 18.4 mph N/A   Clear
3:35 PM 78.8 °F - 66.2 °F 65% 30.07 in 10.0 mi South 9.2 mph 17.3 mph N/A   Clear
3:55 PM 78.8 °F - 66.2 °F 65% 30.07 in 10.0 mi South 9.2 mph - N/A   Clear
4:15 PM 77.0 °F - 66.2 °F 69% 30.07 in 10.0 mi South 9.2 mph 17.3 mph N/A   Clear
4:35 PM 77.0 °F - 66.2 °F 69% 30.08 in 10.0 mi South 6.9 mph - N/A   Clear
4:55 PM 75.2 °F - 66.2 °F 73% 30.08 in 10.0 mi South 6.9 mph - N/A   Clear
5:15 PM 73.4 °F - 66.2 °F 78% 30.08 in 10.0 mi South 5.8 mph 17.3 mph N/A   Clear
5:35 PM 73.4 °F - 66.2 °F 78% 30.08 in 10.0 mi South 6.9 mph - N/A   Clear
6:55 PM 69.8 °F - 68.0 °F 94% 30.11 in 10.0 mi South 5.8 mph - N/A   Clear
7:15 PM 69.8 °F - 68.0 °F 94% 30.11 in 10.0 mi South 4.6 mph - N/A   Clear
8:15 PM 69.8 °F - 68.0 °F 94% 30.10 in 10.0 mi South 6.9 mph - N/A   Clear
8:35 PM 68.0 °F - 68.0 °F 100% 30.10 in 10.0 mi South 6.9 mph - N/A   Clear
8:55 PM 68.0 °F - 68.0 °F 100% 30.10 in 10.0 mi South 6.9 mph - N/A   Clear
9:15 PM 68.0 °F - 68.0 °F 100% 30.10 in 10.0 mi South 5.8 mph - N/A   Clear
9:35 PM 68.0 °F - 68.0 °F 100% 30.10 in 10.0 mi South 6.9 mph - N/A   Clear
9:55 PM 68.0 °F - 68.0 °F 100% 30.10 in 10.0 mi South 6.9 mph - N/A   Clear
10:15 PM 68.0 °F - 68.0 °F 100% 30.10 in 10.0 mi South 4.6 mph - N/A   Clear
10:35 PM 68.0 °F - 68.0 °F 100% 30.11 in 10.0 mi South 8.1 mph - N/A   Clear
10:55 PM 68.0 °F - 68.0 °F 100% 30.11 in 10.0 mi South 8.1 mph - N/A   Clear